Retour au catalogue

COSMOS 1174

ActifMilitaireLEO
NORAD 11765·PAYLOAD·🇷🇺 Russia

Lancé Apr 18, 1980 depuis Baikonur Cosmodrome

Loading…

Prochains Passages (prochaines 24 heures)

TLE

FraisSource: Space-Track

Époque: Sep 14, 2026, 14:13 UTC

1 11765U 80030A   26257.59302833  .00001811  00000-0  89878-4 0  9991
2 11765  66.0812 333.1570 0465337  49.7484 314.3360 14.58605859391960

Suivez COSMOS 1174 en temps réel avec AllMySat

Download on the App Store